User: anonymous   Login
Location: Invercargill
(46.4000°S, 168.3500°E)
Time: 20:17:41
(UTC+12:00)
Language:

Meteor 2-8 Rocket - Orbit

View from above orbital plane
View from above orbital plane
View from above satellite
View from above satellite

Ground track
Ground track

The orbit data is extracted from the following two-line orbital elements,

1 13114U 82025B   19138.20937924  .00000038  00000-0  20865-4 0  9991
2 13114  82.5411   5.7475 0014257 349.3946 150.1985 13.84671343877289
Epoch (UTC): 18 May 2019 05:01:30
Eccentricity: 0.0014257
inclination: 82.5411°
perigee height: 937 km
apogee height: 958 km
right ascension of ascending node: 5.7475°
argument of perigee: 349.3946°
revolutions per day: 13.84671343
mean anomaly at epoch: 150.1985°
orbit number at epoch: 87728

The dashed part of the orbit path shows where the satellite is in the earth's shadow,  

DLR